Weather in Pago Pago

Samoa     14°16′08″S   170°40′57″W
temp.,
°C
wind,
m/s
gust,
m/s
humid.,
%
clouds,
%
prec.,
mm/h
press.,
hPa
HPBL,
m
5 march, fri
fri501:00+28e667853 0.2 1011818
04:00+28ese567787 0.1 1010950
07:00+28ese667883 0.1 1011842
10:00+28e557740 0.0 1013675
13:00+28e557458 0.0 1011711
16:00+28e457297 0.0 1009852
19:00+28ese457597 0.0 1010762
22:00+28e557996 0.2 1012685
6 march, sat
sat601:00+28ene457988 0.3 1011664
04:00+28ne337898 0.1 1010606
07:00+28nne447883 0.3 1011514
10:00+28n3376100 0.2 1013480
13:00+28nnw3375100 2.1 1011552
16:00+28sse1071100 2.4 1009621
19:00+28sse107097 2.4 1011637
22:00+28se1169100 0.0 1012806
7 march, sun
sun701:00+28sse2272100 0.0 1011771
04:00+28s117389 0.3 1010553
07:00+27se117395 1.5 1011308
10:00+28nnw117188 0.8 1012366
13:00+28nw116894 0.8 1010659
16:00+28w2368100 0.0 1008853
19:00+28sw2268100 0.0 1010851
22:00+27ese6580100 4.2 1012279
8 march, mon
mon801:00+26nnw1177100 6.9 1011132
04:00+25n5483100 1.1 1009445
07:00+26nw4481100 1.1 1010474
10:00+26nw5579100 0.1 1011520
13:00+27wnw5575100 0.1 1009698
16:00+28wnw5674100 0.0 1007860
19:00+28w5674100 0.0 1009887
22:00+28w4474100 0.0 1010853
9 march, tue
tue901:00+28w4574100 0.1 1009802
04:00+28w5677100 1.6 1008659
07:00+28wnw4576100 3.1 1009498
10:00+28wnw5574100 1.8 1010629
13:00+28wnw4573100 3.0 1009890
16:00+28w4475100 4.2 1008556
19:00+27se4381100 9.8 1010315
22:00+26nne5587100 3.0 1011425